Time,TemperatureF,DewpointF,PressureIn,WindDirection,WindDirectionDegrees,WindSpeedMPH,WindSpeedGustMPH,Humidity,HourlyPrecipIn,Conditions,Clouds,dailyrainin,SoftwareType,DateUTC
2013-02-11 00:00:00,31.6,24.3,30.03,SW,224,1.0,2.0,74,0.00,,---,0.00,VWS V14.01,2013-02-11 08:00:00,
2013-02-11 00:05:00,31.8,24.8,30.03,West,266,0.0,2.0,75,0.00,,---,0.00,VWS V14.01,2013-02-11 08:05:00,
2013-02-11 00:10:00,31.8,24.8,30.03,NNW,328,2.0,3.0,75,0.00,,---,0.00,VWS V14.01,2013-02-11 08:10:00,
2013-02-11 00:15:00,31.6,24.6,30.03,SW,235,1.0,3.0,75,0.00,,---,0.00,VWS V14.01,2013-02-11 08:15:00,
2013-02-11 00:20:00,31.5,24.5,30.03,WNW,303,3.0,3.0,75,0.00,,---,0.00,VWS V14.01,2013-02-11 08:20:00,
2013-02-11 00:25:00,31.2,24.2,30.03,West,276,2.0,3.0,75,0.00,,---,0.00,VWS V14.01,2013-02-11 08:25:00,
2013-02-11 00:30:00,30.9,23.6,30.03,NE,39,0.0,1.0,74,0.00,,---,0.00,VWS V14.01,2013-02-11 08:30:00,
2013-02-11 00:35:00,30.2,23.6,30.03,WNW,286,2.0,2.0,76,0.00,,---,0.00,VWS V14.01,2013-02-11 08:35:00,
2013-02-11 00:40:00,29.9,23.6,30.03,SW,233,2.0,2.0,77,0.00,,---,0.00,VWS V14.01,2013-02-11 08:40:00,
2013-02-11 00:45:00,29.8,23.8,30.03,WSW,252,1.0,3.0,78,0.00,,---,0.00,VWS V14.01,2013-02-11 08:45:00,
2013-02-11 00:50:00,29.4,23.4,30.04,WNW,284,0.0,3.0,78,0.00,,---,0.00,VWS V14.01,2013-02-11 08:50:00,
2013-02-11 00:55:00,29.1,23.4,30.04,WSW,252,1.0,3.0,79,0.00,,---,0.00,VWS V14.01,2013-02-11 08:55:00,
2013-02-11 01:00:00,28.5,22.8,30.04,WNW,284,1.0,2.0,79,0.00,,---,0.00,VWS V14.01,2013-02-11 09:00:00,
2013-02-11 01:05:00,28.1,22.7,30.04,WNW,291,1.0,2.0,80,0.00,,---,0.00,VWS V14.01,2013-02-11 09:05:00,
2013-02-11 01:10:00,27.6,22.5,30.04,WNW,291,0.0,2.0,81,0.00,,---,0.00,VWS V14.01,2013-02-11 09:10:00,
2013-02-11 01:15:00,27.2,22.4,30.04,West,281,1.0,2.0,82,0.00,,---,0.00,VWS V14.01,2013-02-11 09:15:00,
2013-02-11 01:20:00,27.2,22.7,30.04,West,267,1.0,3.0,83,0.00,,---,0.00,VWS V14.01,2013-02-11 09:20:00,
2013-02-11 01:25:00,27.3,22.8,30.03,WNW,284,1.0,3.0,83,0.00,,---,0.00,VWS V14.01,2013-02-11 09:25:00,
2013-02-11 01:30:00,27.4,23.2,30.04,NW,326,1.0,2.0,84,0.00,,---,0.00,VWS V14.01,2013-02-11 09:30:00,
2013-02-11 01:35:00,26.5,22.0,30.04,West,281,1.0,3.0,83,0.00,,---,0.00,VWS V14.01,2013-02-11 09:35:00,
2013-02-11 01:40:00,26.6,22.7,30.04,WSW,245,0.0,3.0,85,0.00,,---,0.00,VWS V14.01,2013-02-11 09:40:00,
2013-02-11 01:45:00,26.6,22.7,30.04,SW,235,0.0,3.0,85,0.00,,---,0.00,VWS V14.01,2013-02-11 09:45:00,
2013-02-11 01:50:00,26.7,23.1,30.04,SW,233,1.0,3.0,86,0.00,,---,0.00,VWS V14.01,2013-02-11 09:50:00,
2013-02-11 01:55:00,27.1,23.8,30.04,West,274,3.0,3.0,87,0.00,,---,0.00,VWS V14.01,2013-02-11 09:55:00,
2013-02-11 02:00:00,27.5,23.9,30.04,West,277,1.0,3.0,86,0.00,,---,0.00,VWS V14.01,2013-02-11 10:00:00,
2013-02-11 02:05:00,27.5,23.6,30.04,WNW,283,2.0,3.0,85,0.00,,---,0.00,VWS V14.01,2013-02-11 10:05:00,
2013-02-11 02:10:00,27.2,23.3,30.04,West,273,3.0,4.0,85,0.00,,---,0.00,VWS V14.01,2013-02-11 10:10:00,
2013-02-11 02:15:00,27.0,23.1,30.04,West,276,2.0,4.0,85,0.00,,---,0.00,VWS V14.01,2013-02-11 10:15:00,
2013-02-11 02:20:00,26.9,23.0,30.04,WNW,296,3.0,4.0,85,0.00,,---,0.00,VWS V14.01,2013-02-11 10:20:00,
2013-02-11 02:25:00,26.7,23.1,30.05,WNW,291,2.0,4.0,86,0.00,,---,0.00,VWS V14.01,2013-02-11 10:25:00,
2013-02-11 02:30:00,26.7,23.1,30.05,West,278,3.0,3.0,86,0.00,,---,0.00,VWS V14.01,2013-02-11 10:30:00,
2013-02-11 02:35:00,26.7,23.1,30.04,West,271,1.0,4.0,86,0.00,,---,0.00,VWS V14.01,2013-02-11 10:35:00,
2013-02-11 02:40:00,26.7,23.1,30.05,West,263,0.0,4.0,86,0.00,,---,0.00,VWS V14.01,2013-02-11 10:40:00,
2013-02-11 02:45:00,26.4,22.8,30.05,West,277,2.0,4.0,86,0.00,,---,0.00,VWS V14.01,2013-02-11 10:45:00,
2013-02-11 02:50:00,26.6,23.3,30.05,WSW,249,3.0,4.0,87,0.00,,---,0.00,VWS V14.01,2013-02-11 10:50:00,
2013-02-11 02:55:00,27.1,24.0,30.04,WSW,246,1.0,4.0,88,0.00,,---,0.00,VWS V14.01,2013-02-11 10:55:00,
2013-02-11 03:00:00,27.3,24.0,30.04,West,264,0.0,2.0,87,0.00,,---,0.00,VWS V14.01,2013-02-11 11:00:00,
2013-02-11 03:05:00,27.2,23.9,30.05,WSW,243,1.0,3.0,87,0.00,,---,0.00,VWS V14.01,2013-02-11 11:05:00,
2013-02-11 03:10:00,27.3,23.7,30.05,WSW,252,4.0,4.0,86,0.00,,---,0.00,VWS V14.01,2013-02-11 11:10:00,
2013-02-11 03:15:00,26.9,23.0,30.05,SW,235,1.0,4.0,85,0.00,,---,0.00,VWS V14.01,2013-02-11 11:15:00,
2013-02-11 03:20:00,26.9,23.3,30.04,SW,233,0.0,4.0,86,0.00,,---,0.00,VWS V14.01,2013-02-11 11:20:00,
2013-02-11 03:25:00,27.0,23.4,30.04,West,270,0.0,4.0,86,0.00,,---,0.00,VWS V14.01,2013-02-11 11:25:00,
2013-02-11 03:30:00,26.3,21.6,30.05,NW,312,0.0,3.0,82,0.00,,---,0.00,VWS V14.01,2013-02-11 11:30:00,
2013-02-11 03:35:00,25.0,20.6,30.05,WNW,283,1.0,3.0,83,0.00,,---,0.00,VWS V14.01,2013-02-11 11:35:00,
2013-02-11 03:40:00,24.6,20.7,30.04,West,280,0.0,3.0,85,0.00,,---,0.00,VWS V14.01,2013-02-11 11:40:00,
2013-02-11 03:45:00,24.6,21.3,30.05,WSW,249,0.0,3.0,87,0.00,,---,0.00,VWS V14.01,2013-02-11 11:45:00,
2013-02-11 03:50:00,24.5,21.2,30.04,NW,319,2.0,3.0,87,0.00,,---,0.00,VWS V14.01,2013-02-11 11:50:00,
2013-02-11 03:55:00,23.9,20.3,30.04,WNW,300,2.0,3.0,86,0.00,,---,0.00,VWS V14.01,2013-02-11 11:55:00,
2013-02-11 04:00:00,23.7,20.4,30.04,West,274,0.0,1.0,87,0.00,,---,0.00,VWS V14.01,2013-02-11 12:00:00,
2013-02-11 04:05:00,23.7,20.7,30.04,WNW,285,2.0,2.0,88,0.00,,---,0.00,VWS V14.01,2013-02-11 12:05:00,
2013-02-11 04:10:00,23.7,20.7,30.04,West,276,1.0,2.0,88,0.00,,---,0.00,VWS V14.01,2013-02-11 12:10:00,
2013-02-11 04:15:00,23.7,20.7,30.05,West,277,1.0,3.0,88,0.00,,---,0.00,VWS V14.01,2013-02-11 12:15:00,
2013-02-11 04:20:00,23.7,20.7,30.05,West,273,1.0,3.0,88,0.00,,---,0.00,VWS V14.01,2013-02-11 12:20:00,
2013-02-11 04:25:00,23.8,21.0,30.05,WSW,252,1.0,3.0,89,0.00,,---,0.00,VWS V14.01,2013-02-11 12:25:00,
2013-02-11 04:30:00,23.9,21.1,30.05,WSW,253,1.0,2.0,89,0.00,,---,0.00,VWS V14.01,2013-02-11 12:30:00,
2013-02-11 04:35:00,23.9,21.1,30.05,WSW,240,0.0,3.0,89,0.00,,---,0.00,VWS V14.01,2013-02-11 12:35:00,
2013-02-11 04:40:00,24.2,21.4,30.05,WNW,285,1.0,3.0,89,0.00,,---,0.00,VWS V14.01,2013-02-11 12:40:00,
2013-02-11 04:45:00,24.2,21.4,30.05,WNW,288,1.0,3.0,89,0.00,,---,0.00,VWS V14.01,2013-02-11 12:45:00,
2013-02-11 04:50:00,24.5,21.7,30.05,WSW,240,0.0,3.0,89,0.00,,---,0.00,VWS V14.01,2013-02-11 12:50:00,
2013-02-11 04:55:00,24.7,21.9,30.05,West,273,0.0,3.0,89,0.00,,---,0.00,VWS V14.01,2013-02-11 12:55:00,
2013-02-11 05:00:00,24.8,22.0,30.05,WSW,249,2.0,4.0,89,0.00,,---,0.00,VWS V14.01,2013-02-11 13:00:00,
2013-02-11 05:05:00,25.0,22.2,30.06,West,263,2.0,4.0,89,0.00,,---,0.00,VWS V14.01,2013-02-11 13:05:00,
2013-02-11 05:10:00,25.2,22.1,30.06,WSW,249,2.0,4.0,88,0.00,,---,0.00,VWS V14.01,2013-02-11 13:10:00,
2013-02-11 05:15:00,25.3,22.2,30.06,WNW,285,1.0,4.0,88,0.00,,---,0.00,VWS V14.01,2013-02-11 13:15:00,
2013-02-11 05:20:00,25.1,21.8,30.06,SW,232,1.0,4.0,87,0.00,,---,0.00,VWS V14.01,2013-02-11 13:20:00,
2013-02-11 05:25:00,24.9,21.6,30.06,SW,231,1.0,4.0,87,0.00,,---,0.00,VWS V14.01,2013-02-11 13:25:00,
2013-02-11 05:30:00,24.8,21.5,30.06,West,264,2.0,2.0,87,0.00,,---,0.00,VWS V14.01,2013-02-11 13:30:00,
2013-02-11 05:35:00,25.2,22.1,30.06,SW,232,0.0,3.0,88,0.00,,---,0.00,VWS V14.01,2013-02-11 13:35:00,
2013-02-11 05:40:00,24.8,20.9,30.06,NNW,345,0.0,3.0,85,0.00,,---,0.00,VWS V14.01,2013-02-11 13:40:00,
2013-02-11 05:45:00,23.8,19.7,30.06,NNW,345,0.0,3.0,84,0.00,,---,0.00,VWS V14.01,2013-02-11 13:45:00,
2013-02-11 05:50:00,23.1,19.3,30.06,NW,319,2.0,3.0,85,0.00,,---,0.00,VWS V14.01,2013-02-11 13:50:00,
2013-02-11 05:55:00,22.5,19.0,30.07,West,273,1.0,3.0,86,0.00,,---,0.00,VWS V14.01,2013-02-11 13:55:00,
2013-02-11 06:00:00,22.2,18.9,30.07,WNW,297,0.0,2.0,87,0.00,,---,0.00,VWS V14.01,2013-02-11 14:00:00,
2013-02-11 06:05:00,22.0,18.7,30.07,West,278,1.0,2.0,87,0.00,,---,0.00,VWS V14.01,2013-02-11 14:05:00,
2013-02-11 06:10:00,22.0,19.0,30.07,West,280,3.0,3.0,88,0.00,,---,0.00,VWS V14.01,2013-02-11 14:10:00,
2013-02-11 06:15:00,22.4,19.7,30.08,West,276,2.0,4.0,89,0.00,,---,0.00,VWS V14.01,2013-02-11 14:15:00,
2013-02-11 06:20:00,22.8,20.0,30.08,West,267,1.0,4.0,89,0.00,,---,0.00,VWS V14.01,2013-02-11 14:20:00,
2013-02-11 06:25:00,23.1,20.4,30.08,West,267,2.0,4.0,89,0.00,,---,0.00,VWS V14.01,2013-02-11 14:25:00,
2013-02-11 06:30:00,23.6,20.8,30.08,WSW,243,0.0,4.0,89,0.00,,---,0.00,VWS V14.01,2013-02-11 14:30:00,
2013-02-11 06:35:00,23.8,21.0,30.08,SW,226,0.0,4.0,89,0.00,,---,0.00,VWS V14.01,2013-02-11 14:35:00,
2013-02-11 06:40:00,24.0,21.2,30.08,WSW,252,1.0,4.0,89,0.00,,---,0.00,VWS V14.01,2013-02-11 14:40:00,
2013-02-11 06:45:00,24.5,21.7,30.08,WNW,283,2.0,4.0,89,0.00,,---,0.00,VWS V14.01,2013-02-11 14:45:00,
2013-02-11 06:50:00,24.1,20.5,30.08,West,273,1.0,4.0,86,0.00,,---,0.00,VWS V14.01,2013-02-11 14:50:00,
2013-02-11 06:55:00,23.7,20.1,30.08,West,276,1.0,4.0,86,0.00,,---,0.00,VWS V14.01,2013-02-11 14:55:00,
2013-02-11 07:00:00,22.8,18.7,30.09,NNW,335,1.0,2.0,84,0.00,,---,0.00,VWS V14.01,2013-02-11 15:00:00,
2013-02-11 07:05:00,21.9,18.4,30.09,WNW,291,0.0,3.0,86,0.00,,---,0.00,VWS V14.01,2013-02-11 15:05:00,
2013-02-11 07:10:00,22.3,19.3,30.09,West,260,1.0,3.0,88,0.00,,---,0.00,VWS V14.01,2013-02-11 15:10:00,
2013-02-11 07:15:00,23.2,20.5,30.09,West,267,1.0,3.0,89,0.00,,---,0.00,VWS V14.01,2013-02-11 15:15:00,
2013-02-11 07:20:00,24.0,21.2,30.09,West,270,2.0,3.0,89,0.00,,---,0.00,VWS V14.01,2013-02-11 15:20:00,
2013-02-11 07:25:00,24.7,21.7,30.10,West,271,1.0,3.0,88,0.00,,---,0.00,VWS V14.01,2013-02-11 15:25:00,
2013-02-11 07:30:00,25.4,22.4,30.10,West,268,1.0,4.0,88,0.00,,---,0.00,VWS V14.01,2013-02-11 15:30:00,
2013-02-11 07:35:00,26.0,22.7,30.11,West,268,2.0,4.0,87,0.00,,---,0.00,VWS V14.01,2013-02-11 15:35:00,
2013-02-11 07:40:00,26.5,23.2,30.11,West,278,1.0,4.0,87,0.00,,---,0.00,VWS V14.01,2013-02-11 15:40:00,
2013-02-11 07:45:00,27.1,23.8,30.11,WNW,293,3.0,4.0,87,0.00,,---,0.00,VWS V14.01,2013-02-11 15:45:00,
2013-02-11 07:50:00,27.8,24.4,30.11,WNW,288,2.0,4.0,87,0.00,,---,0.00,VWS V14.01,2013-02-11 15:50:00,
2013-02-11 07:55:00,28.6,25.0,30.11,West,273,2.0,4.0,86,0.00,,---,0.00,VWS V14.01,2013-02-11 15:55:00,
2013-02-11 08:00:00,29.6,25.9,30.12,West,263,3.0,3.0,86,0.00,,---,0.00,VWS V14.01,2013-02-11 16:00:00,
2013-02-11 08:05:00,30.6,26.6,30.12,West,277,2.0,4.0,85,0.00,,---,0.00,VWS V14.01,2013-02-11 16:05:00,
2013-02-11 08:10:00,31.6,27.3,30.12,WSW,240,1.0,4.0,84,0.00,,---,0.00,VWS V14.01,2013-02-11 16:10:00,
2013-02-11 08:15:00,32.6,27.7,30.13,West,269,1.0,4.0,82,0.00,,---,0.00,VWS V14.01,2013-02-11 16:15:00,
2013-02-11 08:20:00,33.5,27.7,30.13,WSW,242,0.0,4.0,79,0.00,,---,0.00,VWS V14.01,2013-02-11 16:20:00,
2013-02-11 08:25:00,34.5,28.4,30.13,WSW,249,0.0,4.0,78,0.00,,---,0.00,VWS V14.01,2013-02-11 16:25:00,
2013-02-11 08:30:00,35.5,28.7,30.13,SW,231,0.0,0.0,76,0.00,,---,0.00,VWS V14.01,2013-02-11 16:30:00,
2013-02-11 08:35:00,36.3,28.1,30.13,West,274,1.0,2.0,72,0.00,,---,0.00,VWS V14.01,2013-02-11 16:35:00,
2013-02-11 08:40:00,37.0,28.1,30.13,West,274,0.0,2.0,70,0.00,,---,0.00,VWS V14.01,2013-02-11 16:40:00,
2013-02-11 08:45:00,37.8,27.8,30.14,West,274,0.0,2.0,67,0.00,,---,0.00,VWS V14.01,2013-02-11 16:45:00,
2013-02-11 08:50:00,38.6,27.1,30.14,West,274,0.0,2.0,63,0.00,,---,0.00,VWS V14.01,2013-02-11 16:50:00,
2013-02-11 08:55:00,39.4,26.7,30.14,West,274,0.0,2.0,60,0.00,,---,0.00,VWS V14.01,2013-02-11 16:55:00,
2013-02-11 09:00:00,40.4,24.2,30.14,East,82,2.0,2.0,52,0.00,,---,0.00,VWS V14.01,2013-02-11 17:00:00,
2013-02-11 09:05:00,40.5,23.3,30.14,East,82,2.0,4.0,50,0.00,,---,0.00,VWS V14.01,2013-02-11 17:05:00,
2013-02-11 09:10:00,40.6,23.0,30.14,East,88,2.0,5.0,49,0.00,,---,0.00,VWS V14.01,2013-02-11 17:10:00,
2013-02-11 09:15:00,40.8,23.1,30.14,ESE,122,4.0,5.0,49,0.00,,---,0.00,VWS V14.01,2013-02-11 17:15:00,
2013-02-11 09:20:00,40.9,22.7,30.14,ESE,111,5.0,6.0,48,0.00,,---,0.00,VWS V14.01,2013-02-11 17:20:00,
2013-02-11 09:25:00,41.3,23.1,30.14,East,98,3.0,6.0,48,0.00,,---,0.00,VWS V14.01,2013-02-11 17:25:00,
2013-02-11 09:30:00,41.7,23.0,30.15,ESE,120,5.0,7.0,47,0.00,,---,0.00,VWS V14.01,2013-02-11 17:30:00,
2013-02-11 09:35:00,41.8,21.5,30.15,East,86,3.0,8.0,44,0.00,,---,0.00,VWS V14.01,2013-02-11 17:35:00,
2013-02-11 09:40:00,42.0,21.7,30.15,ENE,67,5.0,8.0,44,0.00,,---,0.00,VWS V14.01,2013-02-11 17:40:00,
2013-02-11 09:45:00,42.2,20.2,30.15,ESE,112,4.0,8.0,41,0.00,,---,0.00,VWS V14.01,2013-02-11 17:45:00,
2013-02-11 09:50:00,42.3,20.3,30.15,ENE,78,8.0,9.0,41,0.00,,---,0.00,VWS V14.01,2013-02-11 17:50:00,
2013-02-11 09:55:00,42.5,19.9,30.15,East,86,7.0,9.0,40,0.00,,---,0.00,VWS V14.01,2013-02-11 17:55:00,
2013-02-11 10:00:00,43.0,17.2,30.16,East,83,5.0,9.0,35,0.00,,---,0.00,VWS V14.01,2013-02-11 18:00:00,
2013-02-11 10:05:00,43.1,17.3,30.15,ENE,77,4.0,9.0,35,0.00,,---,0.00,VWS V14.01,2013-02-11 18:05:00,
2013-02-11 10:10:00,43.4,16.2,30.16,East,89,5.0,11.0,33,0.00,,---,0.00,VWS V14.01,2013-02-11 18:10:00,
2013-02-11 10:15:00,43.8,18.0,30.16,SE,135,4.0,11.0,35,0.00,,---,0.00,VWS V14.01,2013-02-11 18:15:00,
2013-02-11 10:20:00,43.9,18.0,30.16,East,91,9.0,11.0,35,0.00,,---,0.00,VWS V14.01,2013-02-11 18:20:00,
2013-02-11 10:25:00,44.0,17.5,30.16,East,98,6.0,11.0,34,0.00,,---,0.00,VWS V14.01,2013-02-11 18:25:00,
2013-02-11 10:30:00,44.1,18.2,30.16,East,82,6.0,7.0,35,0.00,,---,0.00,VWS V14.01,2013-02-11 18:30:00,
2013-02-11 10:35:00,44.2,19.0,30.16,ENE,68,7.0,8.0,36,0.00,,---,0.00,VWS V14.01,2013-02-11 18:35:00,
2013-02-11 10:40:00,44.5,18.6,30.16,East,93,6.0,9.0,35,0.00,,---,0.00,VWS V14.01,2013-02-11 18:40:00,
2013-02-11 10:45:00,44.9,18.9,30.16,East,79,5.0,10.0,35,0.00,,---,0.00,VWS V14.01,2013-02-11 18:45:00,
2013-02-11 10:50:00,44.9,18.9,30.16,ENE,77,5.0,10.0,35,0.00,,---,0.00,VWS V14.01,2013-02-11 18:50:00,
2013-02-11 10:55:00,44.7,19.4,30.16,ENE,72,5.0,13.0,36,0.00,,---,0.00,VWS V14.01,2013-02-11 18:55:00,
2013-02-11 11:00:00,45.1,19.8,30.16,SE,125,8.0,10.0,36,0.00,,---,0.00,VWS V14.01,2013-02-11 19:00:00,
2013-02-11 11:05:00,45.5,18.8,30.16,SE,133,5.0,12.0,34,0.00,,---,0.00,VWS V14.01,2013-02-11 19:05:00,
2013-02-11 11:10:00,45.2,19.2,30.16,ENE,70,7.0,12.0,35,0.00,,---,0.00,VWS V14.01,2013-02-11 19:10:00,
2013-02-11 11:15:00,45.2,18.5,30.16,ENE,70,2.0,12.0,34,0.00,,---,0.00,VWS V14.01,2013-02-11 19:15:00,
2013-02-11 11:20:00,45.5,19.5,30.16,SE,139,6.0,12.0,35,0.00,,---,0.00,VWS V14.01,2013-02-11 19:20:00,
2013-02-11 11:25:00,45.7,19.0,30.15,NE,50,7.0,12.0,34,0.00,,---,0.00,VWS V14.01,2013-02-11 19:25:00,
2013-02-11 11:30:00,46.3,18.8,30.15,ENE,75,5.0,7.0,33,0.00,,---,0.00,VWS V14.01,2013-02-11 19:30:00,
2013-02-11 11:35:00,46.4,18.2,30.15,ESE,105,6.0,10.0,32,0.00,,---,0.00,VWS V14.01,2013-02-11 19:35:00,
2013-02-11 11:40:00,46.6,16.8,30.15,SE,129,3.0,10.0,30,0.00,,---,0.00,VWS V14.01,2013-02-11 19:40:00,
2013-02-11 11:45:00,46.9,17.9,30.15,ESE,115,10.0,12.0,31,0.00,,---,0.00,VWS V14.01,2013-02-11 19:45:00,
2013-02-11 11:50:00,46.6,16.8,30.14,ESE,103,3.0,13.0,30,0.00,,---,0.00,VWS V14.01,2013-02-11 19:50:00,
2013-02-11 11:55:00,47.1,18.8,30.14,ESE,119,8.0,13.0,32,0.00,,---,0.00,VWS V14.01,2013-02-11 19:55:00,
2013-02-11 12:00:00,47.3,18.2,30.14,East,99,5.0,6.0,31,0.00,,---,0.00,VWS V14.01,2013-02-11 20:00:00,
2013-02-11 12:05:00,47.5,19.1,30.14,NE,47,6.0,13.0,32,0.00,,---,0.00,VWS V14.01,2013-02-11 20:05:00,
2013-02-11 12:10:00,47.3,18.2,30.14,SE,130,9.0,14.0,31,0.00,,---,0.00,VWS V14.01,2013-02-11 20:10:00,
2013-02-11 12:15:00,47.9,17.2,30.14,ENE,70,7.0,14.0,29,0.00,,---,0.00,VWS V14.01,2013-02-11 20:15:00,
2013-02-11 12:20:00,48.1,17.4,30.14,ENE,71,6.0,14.0,29,0.00,,---,0.00,VWS V14.01,2013-02-11 20:20:00,
2013-02-11 12:25:00,47.9,17.2,30.13,SE,125,9.0,14.0,29,0.00,,---,0.00,VWS V14.01,2013-02-11 20:25:00,
2013-02-11 12:30:00,47.9,16.4,30.13,East,97,9.0,10.0,28,0.00,,---,0.00,VWS V14.01,2013-02-11 20:30:00,
2013-02-11 12:35:00,47.9,17.2,30.13,ENE,58,6.0,12.0,29,0.00,,---,0.00,VWS V14.01,2013-02-11 20:35:00,
2013-02-11 12:40:00,48.1,16.5,30.13,ENE,58,4.0,12.0,28,0.00,,---,0.00,VWS V14.01,2013-02-11 20:40:00,
2013-02-11 12:45:00,48.3,16.7,30.12,NE,47,3.0,12.0,28,0.00,,---,0.00,VWS V14.01,2013-02-11 20:45:00,
2013-02-11 12:50:00,48.4,16.0,30.12,ENE,74,6.0,12.0,27,0.00,,---,0.00,VWS V14.01,2013-02-11 20:50:00,
2013-02-11 12:55:00,48.5,16.1,30.12,East,81,5.0,13.0,27,0.00,,---,0.00,VWS V14.01,2013-02-11 20:55:00,
2013-02-11 13:00:00,48.9,16.4,30.12,ENE,72,5.0,7.0,27,0.00,,---,0.00,VWS V14.01,2013-02-11 21:00:00,
2013-02-11 13:05:00,49.2,16.7,30.12,NE,39,7.0,12.0,27,0.00,,---,0.00,VWS V14.01,2013-02-11 21:05:00,
2013-02-11 13:10:00,48.9,15.5,30.12,NE,46,5.0,15.0,26,0.00,,---,0.00,VWS V14.01,2013-02-11 21:10:00,
2013-02-11 13:15:00,48.6,15.3,30.12,NNW,328,4.0,15.0,26,0.00,,---,0.00,VWS V14.01,2013-02-11 21:15:00,
2013-02-11 13:20:00,48.9,15.5,30.11,ESE,105,2.0,15.0,26,0.00,,---,0.00,VWS V14.01,2013-02-11 21:20:00,
2013-02-11 13:25:00,49.2,16.7,30.11,SE,141,3.0,15.0,27,0.00,,---,0.00,VWS V14.01,2013-02-11 21:25:00,
2013-02-11 13:30:00,49.3,15.9,30.11,ENE,75,8.0,9.0,26,0.00,,---,0.00,VWS V14.01,2013-02-11 21:30:00,
2013-02-11 13:35:00,49.6,16.1,30.11,ENE,75,5.0,9.0,26,0.00,,---,0.00,VWS V14.01,2013-02-11 21:35:00,
2013-02-11 13:40:00,49.6,16.1,30.11,ESE,117,6.0,9.0,26,0.00,,---,0.00,VWS V14.01,2013-02-11 21:40:00,
2013-02-11 13:45:00,49.5,16.0,30.11,South,179,4.0,9.0,26,0.00,,---,0.00,VWS V14.01,2013-02-11 21:45:00,
2013-02-11 13:50:00,49.9,15.5,30.11,SE,125,0.0,9.0,25,0.00,,---,0.00,VWS V14.01,2013-02-11 21:50:00,
2013-02-11 13:55:00,50.0,15.6,30.11,East,82,5.0,11.0,25,0.00,,---,0.00,VWS V14.01,2013-02-11 21:55:00,
2013-02-11 14:00:00,50.1,15.7,30.11,ESE,115,5.0,6.0,25,0.00,,---,0.00,VWS V14.01,2013-02-11 22:00:00,
2013-02-11 14:05:00,50.0,15.6,30.11,SSE,152,4.0,12.0,25,0.00,,---,0.00,VWS V14.01,2013-02-11 22:05:00,
2013-02-11 14:10:00,50.3,15.8,30.11,ENE,70,2.0,12.0,25,0.00,,---,0.00,VWS V14.01,2013-02-11 22:10:00,
2013-02-11 14:15:00,50.3,14.9,30.11,SE,125,3.0,12.0,24,0.00,,---,0.00,VWS V14.01,2013-02-11 22:15:00,
2013-02-11 14:20:00,50.4,15.0,30.11,ESE,111,5.0,12.0,24,0.00,,---,0.00,VWS V14.01,2013-02-11 22:20:00,
2013-02-11 14:25:00,49.8,15.4,30.11,NE,39,4.0,12.0,25,0.00,,---,0.00,VWS V14.01,2013-02-11 22:25:00,
2013-02-11 14:30:00,50.0,14.6,30.11,ESE,103,5.0,6.0,24,0.00,,---,0.00,VWS V14.01,2013-02-11 22:30:00,
2013-02-11 14:35:00,50.5,14.1,30.11,South,174,5.0,10.0,23,0.00,,---,0.00,VWS V14.01,2013-02-11 22:35:00,
2013-02-11 14:40:00,50.9,15.4,30.11,South,189,4.0,10.0,24,0.00,,---,0.00,VWS V14.01,2013-02-11 22:40:00,
2013-02-11 14:45:00,50.9,15.4,30.11,South,188,3.0,10.0,24,0.00,,---,0.00,VWS V14.01,2013-02-11 22:45:00,
2013-02-11 14:50:00,50.7,14.3,30.11,SSE,156,3.0,10.0,23,0.00,,---,0.00,VWS V14.01,2013-02-11 22:50:00,
2013-02-11 14:55:00,51.0,13.5,30.11,SW,216,3.0,10.0,22,0.00,,---,0.00,VWS V14.01,2013-02-11 22:55:00,
2013-02-11 15:00:00,51.4,13.9,30.11,South,184,4.0,5.0,22,0.00,,---,0.00,VWS V14.01,2013-02-11 23:00:00,
2013-02-11 15:05:00,50.9,12.4,30.11,East,101,0.0,9.0,21,0.00,,---,0.00,VWS V14.01,2013-02-11 23:05:00,
2013-02-11 15:10:00,50.9,14.4,30.11,SE,133,5.0,9.0,23,0.00,,---,0.00,VWS V14.01,2013-02-11 23:10:00,
2013-02-11 15:15:00,50.7,13.3,30.11,SSE,153,3.0,9.0,22,0.00,,---,0.00,VWS V14.01,2013-02-11 23:15:00,
2013-02-11 15:20:00,50.9,13.4,30.11,ESE,119,1.0,9.0,22,0.00,,---,0.00,VWS V14.01,2013-02-11 23:20:00,
2013-02-11 15:25:00,51.5,13.9,30.11,SE,129,1.0,9.0,22,0.00,,---,0.00,VWS V14.01,2013-02-11 23:25:00,
2013-02-11 15:30:00,51.8,13.1,30.11,SSW,196,2.0,4.0,21,0.00,,---,0.00,VWS V14.01,2013-02-11 23:30:00,
2013-02-11 15:35:00,51.7,13.0,30.11,SW,224,0.0,4.0,21,0.00,,---,0.00,VWS V14.01,2013-02-11 23:35:00,
2013-02-11 15:40:00,52.1,13.4,30.11,SSW,193,0.0,5.0,21,0.00,,---,0.00,VWS V14.01,2013-02-11 23:40:00,
2013-02-11 15:45:00,52.6,13.8,30.11,South,191,6.0,8.0,21,0.00,,---,0.00,VWS V14.01,2013-02-11 23:45:00,
2013-02-11 15:50:00,51.9,13.2,30.11,SE,125,6.0,8.0,21,0.00,,---,0.00,VWS V14.01,2013-02-11 23:50:00,
2013-02-11 15:55:00,51.2,12.6,30.11,SE,144,3.0,8.0,21,0.00,,---,0.00,VWS V14.01,2013-02-11 23:55:00,
2013-02-11 16:00:00,51.3,12.7,30.11,SW,215,2.0,2.0,21,0.00,,---,0.00,VWS V14.01,2013-02-12 00:00:00,
2013-02-11 16:05:00,51.7,13.0,30.12,SSE,159,2.0,4.0,21,0.00,,---,0.00,VWS V14.01,2013-02-12 00:05:00,
2013-02-11 16:10:00,51.6,13.0,30.12,SSE,166,1.0,5.0,21,0.00,,---,0.00,VWS V14.01,2013-02-12 00:10:00,
2013-02-11 16:15:00,51.4,12.8,30.12,WSW,249,1.0,5.0,21,0.00,,---,0.00,VWS V14.01,2013-02-12 00:15:00,
2013-02-11 16:20:00,51.8,13.1,30.12,SW,225,4.0,5.0,21,0.00,,---,0.00,VWS V14.01,2013-02-12 00:20:00,
2013-02-11 16:25:00,51.8,13.1,30.12,SSE,148,1.0,5.0,21,0.00,,---,0.00,VWS V14.01,2013-02-12 00:25:00,
2013-02-11 16:30:00,51.8,13.1,30.12,SSE,156,1.0,3.0,21,0.00,,---,0.00,VWS V14.01,2013-02-12 00:30:00,
2013-02-11 16:35:00,51.0,11.4,30.12,SE,137,2.0,5.0,20,0.00,,---,0.00,VWS V14.01,2013-02-12 00:35:00,
2013-02-11 16:40:00,50.9,12.4,30.12,SE,136,0.0,5.0,21,0.00,,---,0.00,VWS V14.01,2013-02-12 00:40:00,
2013-02-11 16:45:00,51.0,12.5,30.12,SSW,201,2.0,5.0,21,0.00,,---,0.00,VWS V14.01,2013-02-12 00:45:00,
2013-02-11 16:50:00,50.5,13.1,30.12,SSW,194,1.0,5.0,22,0.00,,---,0.00,VWS V14.01,2013-02-12 00:50:00,
2013-02-11 16:55:00,50.4,13.0,30.12,SSW,194,0.0,5.0,22,0.00,,---,0.00,VWS V14.01,2013-02-12 00:55:00,
2013-02-11 17:00:00,50.0,13.7,30.12,SSW,198,1.0,1.0,23,0.00,,---,0.00,VWS V14.01,2013-02-12 01:00:00,
2013-02-11 17:05:00,49.1,10.9,30.12,SW,214,0.0,1.0,21,0.00,,---,0.00,VWS V14.01,2013-02-12 01:05:00,
2013-02-11 17:10:00,48.6,11.5,30.12,SW,231,0.0,1.0,22,0.00,,---,0.00,VWS V14.01,2013-02-12 01:10:00,
2013-02-11 17:15:00,48.1,13.0,30.12,SW,231,0.0,1.0,24,0.00,,---,0.00,VWS V14.01,2013-02-12 01:15:00,
2013-02-11 17:20:00,47.3,12.4,30.12,SW,230,0.0,1.0,24,0.00,,---,0.00,VWS V14.01,2013-02-12 01:20:00,
2013-02-11 17:25:00,46.6,13.6,30.12,SW,230,0.0,1.0,26,0.00,,---,0.00,VWS V14.01,2013-02-12 01:25:00,
2013-02-11 17:30:00,45.9,13.0,30.13,SW,231,0.0,0.0,26,0.00,,---,0.00,VWS V14.01,2013-02-12 01:30:00,
2013-02-11 17:35:00,45.3,14.1,30.13,SW,231,0.0,0.0,28,0.00,,---,0.00,VWS V14.01,2013-02-12 01:35:00,
2013-02-11 17:40:00,44.6,14.3,30.13,SW,230,0.0,0.0,29,0.00,,---,0.00,VWS V14.01,2013-02-12 01:40:00,
2013-02-11 17:45:00,44.1,16.1,30.13,SW,233,0.0,1.0,32,0.00,,---,0.00,VWS V14.01,2013-02-12 01:45:00,
2013-02-11 17:50:00,43.4,17.6,30.14,SSW,195,1.0,1.0,35,0.00,,---,0.00,VWS V14.01,2013-02-12 01:50:00,
2013-02-11 17:55:00,41.9,18.2,30.14,SE,142,5.0,6.0,38,0.00,,---,0.00,VWS V14.01,2013-02-12 01:55:00,
2013-02-11 18:00:00,42.2,21.3,30.14,WSW,243,3.0,3.0,43,0.00,,---,0.00,VWS V14.01,2013-02-12 02:00:00,
2013-02-11 18:05:00,42.0,21.7,30.14,WSW,255,0.0,3.0,44,0.00,,---,0.00,VWS V14.01,2013-02-12 02:05:00,
2013-02-11 18:10:00,41.2,22.5,30.14,West,262,0.0,3.0,47,0.00,,---,0.00,VWS V14.01,2013-02-12 02:10:00,
2013-02-11 18:15:00,40.6,23.9,30.14,SW,236,0.0,3.0,51,0.00,,---,0.00,VWS V14.01,2013-02-12 02:15:00,
2013-02-11 18:20:00,40.3,24.5,30.14,SSW,204,3.0,3.0,53,0.00,,---,0.00,VWS V14.01,2013-02-12 02:20:00,
2013-02-11 18:25:00,39.3,23.2,30.14,SW,236,1.0,4.0,52,0.00,,---,0.00,VWS V14.01,2013-02-12 02:25:00,
2013-02-11 18:30:00,38.6,24.3,30.14,SW,219,0.0,0.0,56,0.00,,---,0.00,VWS V14.01,2013-02-12 02:30:00,
2013-02-11 18:35:00,38.0,24.1,30.14,SW,225,1.0,2.0,57,0.00,,---,0.00,VWS V14.01,2013-02-12 02:35:00,
2013-02-11 18:40:00,37.5,24.5,30.15,SW,227,0.0,2.0,59,0.00,,---,0.00,VWS V14.01,2013-02-12 02:40:00,
2013-02-11 18:45:00,37.1,24.1,30.15,SW,221,0.0,2.0,59,0.00,,---,0.00,VWS V14.01,2013-02-12 02:45:00,
2013-02-11 18:50:00,36.4,24.2,30.15,NW,305,2.0,2.0,61,0.00,,---,0.00,VWS V14.01,2013-02-12 02:50:00,
2013-02-11 18:55:00,36.2,24.8,30.16,NW,304,0.0,2.0,63,0.00,,---,0.00,VWS V14.01,2013-02-12 02:55:00,
2013-02-11 19:00:00,35.6,24.3,30.16,WNW,303,0.0,0.0,63,0.00,,---,0.00,VWS V14.01,2013-02-12 03:00:00,
2013-02-11 19:05:00,34.9,24.0,30.16,West,268,1.0,1.0,64,0.00,,---,0.00,VWS V14.01,2013-02-12 03:05:00,
2013-02-11 19:10:00,34.7,23.8,30.16,West,280,0.0,2.0,64,0.00,,---,0.00,VWS V14.01,2013-02-12 03:10:00,
2013-02-11 19:15:00,34.4,23.5,30.16,West,278,0.0,2.0,64,0.00,,---,0.00,VWS V14.01,2013-02-12 03:15:00,
2013-02-11 19:20:00,34.2,24.0,30.16,West,259,0.0,2.0,66,0.00,,---,0.00,VWS V14.01,2013-02-12 03:20:00,
2013-02-11 19:25:00,34.1,23.6,30.16,West,261,0.0,2.0,65,0.00,,---,0.00,VWS V14.01,2013-02-12 03:25:00,
2013-02-11 19:30:00,33.7,23.9,30.16,WSW,239,0.0,1.0,67,0.00,,---,0.00,VWS V14.01,2013-02-12 03:30:00,
2013-02-11 19:35:00,33.4,23.6,30.16,WSW,240,1.0,1.0,67,0.00,,---,0.00,VWS V14.01,2013-02-12 03:35:00,
2013-02-11 19:40:00,33.1,23.7,30.16,SW,233,1.0,2.0,68,0.00,,---,0.00,VWS V14.01,2013-02-12 03:40:00,
2013-02-11 19:45:00,32.7,23.7,30.16,WSW,249,0.0,2.0,69,0.00,,---,0.00,VWS V14.01,2013-02-12 03:45:00,
2013-02-11 19:50:00,32.5,23.5,30.17,WSW,246,0.0,2.0,69,0.00,,---,0.00,VWS V14.01,2013-02-12 03:50:00,
2013-02-11 19:55:00,32.4,23.7,30.17,WSW,246,0.0,2.0,70,0.00,,---,0.00,VWS V14.01,2013-02-12 03:55:00,
2013-02-11 20:00:00,32.4,23.7,30.17,West,259,0.0,1.0,70,0.00,,---,0.00,VWS V14.01,2013-02-12 04:00:00,
2013-02-11 20:05:00,32.2,23.5,30.18,WSW,246,0.0,1.0,70,0.00,,---,0.00,VWS V14.01,2013-02-12 04:05:00,
2013-02-11 20:10:00,32.1,23.4,30.18,West,263,1.0,1.0,70,0.00,,---,0.00,VWS V14.01,2013-02-12 04:10:00,
2013-02-11 20:15:00,31.3,22.3,30.18,West,266,1.0,1.0,69,0.00,,---,0.00,VWS V14.01,2013-02-12 04:15:00,
2013-02-11 20:20:00,29.9,21.7,30.18,West,259,0.0,1.0,71,0.00,,---,0.00,VWS V14.01,2013-02-12 04:20:00,
2013-02-11 20:25:00,29.2,22.3,30.18,West,276,0.0,1.0,75,0.00,,---,0.00,VWS V14.01,2013-02-12 04:25:00,
2013-02-11 20:30:00,29.0,22.4,30.18,West,267,2.0,3.0,76,0.00,,---,0.00,VWS V14.01,2013-02-12 04:30:00,
2013-02-11 20:35:00,28.9,22.6,30.18,WNW,284,2.0,3.0,77,0.00,,---,0.00,VWS V14.01,2013-02-12 04:35:00,
2013-02-11 20:40:00,28.8,22.5,30.18,West,278,1.0,3.0,77,0.00,,---,0.00,VWS V14.01,2013-02-12 04:40:00,
2013-02-11 20:45:00,28.3,22.0,30.18,West,278,1.0,3.0,77,0.00,,---,0.00,VWS V14.01,2013-02-12 04:45:00,
2013-02-11 20:50:00,27.7,21.8,30.19,West,280,1.0,3.0,78,0.00,,---,0.00,VWS V14.01,2013-02-12 04:50:00,
2013-02-11 20:55:00,27.4,21.8,30.19,West,276,1.0,3.0,79,0.00,,---,0.00,VWS V14.01,2013-02-12 04:55:00,
2013-02-11 21:00:00,26.9,21.3,30.19,West,276,0.0,1.0,79,0.00,,---,0.00,VWS V14.01,2013-02-12 05:00:00,
2013-02-11 21:05:00,26.2,20.6,30.19,WNW,287,0.0,2.0,79,0.00,,---,0.00,VWS V14.01,2013-02-12 05:05:00,
2013-02-11 21:10:00,26.0,21.0,30.20,West,275,0.0,2.0,81,0.00,,---,0.00,VWS V14.01,2013-02-12 05:10:00,
2013-02-11 21:15:00,26.1,21.4,30.19,West,281,0.0,2.0,82,0.00,,---,0.00,VWS V14.01,2013-02-12 05:15:00,
2013-02-11 21:20:00,26.2,21.5,30.20,West,277,0.0,2.0,82,0.00,,---,0.00,VWS V14.01,2013-02-12 05:20:00,
2013-02-11 21:25:00,26.3,21.6,30.20,WSW,240,1.0,2.0,82,0.00,,---,0.00,VWS V14.01,2013-02-12 05:25:00,
2013-02-11 21:30:00,26.4,22.0,30.20,West,269,0.0,2.0,83,0.00,,---,0.00,VWS V14.01,2013-02-12 05:30:00,
2013-02-11 21:35:00,26.4,21.7,30.21,West,268,0.0,2.0,82,0.00,,---,0.00,VWS V14.01,2013-02-12 05:35:00,
2013-02-11 21:40:00,26.4,22.0,30.21,West,274,1.0,2.0,83,0.00,,---,0.00,VWS V14.01,2013-02-12 05:40:00,
2013-02-11 21:45:00,26.3,21.6,30.21,West,273,1.0,2.0,82,0.00,,---,0.00,VWS V14.01,2013-02-12 05:45:00,
2013-02-11 21:50:00,26.1,21.4,30.21,West,280,0.0,2.0,82,0.00,,---,0.00,VWS V14.01,2013-02-12 05:50:00,
2013-02-11 21:55:00,26.2,21.8,30.21,West,264,1.0,2.0,83,0.00,,---,0.00,VWS V14.01,2013-02-12 05:55:00,
2013-02-11 22:00:00,26.7,22.0,30.21,WNW,283,2.0,2.0,82,0.00,,---,0.00,VWS V14.01,2013-02-12 06:00:00,
2013-02-11 22:05:00,26.8,22.0,30.21,West,259,0.0,2.0,82,0.00,,---,0.00,VWS V14.01,2013-02-12 06:05:00,
2013-02-11 22:10:00,26.8,21.8,30.21,West,263,1.0,3.0,81,0.00,,---,0.00,VWS V14.01,2013-02-12 06:10:00,
2013-02-11 22:15:00,26.7,21.7,30.21,WSW,252,1.0,3.0,81,0.00,,---,0.00,VWS V14.01,2013-02-12 06:15:00,
2013-02-11 22:20:00,26.7,21.7,30.21,West,269,1.0,3.0,81,0.00,,---,0.00,VWS V14.01,2013-02-12 06:20:00,
2013-02-11 22:25:00,26.4,21.4,30.21,WNW,285,1.0,3.0,81,0.00,,---,0.00,VWS V14.01,2013-02-12 06:25:00,
2013-02-11 22:30:00,26.4,21.7,30.21,WNW,283,2.0,3.0,82,0.00,,---,0.00,VWS V14.01,2013-02-12 06:30:00,
2013-02-11 22:35:00,26.4,21.4,30.21,WNW,288,0.0,3.0,81,0.00,,---,0.00,VWS V14.01,2013-02-12 06:35:00,
2013-02-11 22:40:00,26.3,21.3,30.21,West,265,0.0,3.0,81,0.00,,---,0.00,VWS V14.01,2013-02-12 06:40:00,
2013-02-11 22:45:00,26.2,21.2,30.21,West,274,2.0,3.0,81,0.00,,---,0.00,VWS V14.01,2013-02-12 06:45:00,
2013-02-11 22:50:00,26.2,21.2,30.22,SW,236,1.0,3.0,81,0.00,,---,0.00,VWS V14.01,2013-02-12 06:50:00,
2013-02-11 22:55:00,26.2,21.2,30.22,SW,232,2.0,3.0,81,0.00,,---,0.00,VWS V14.01,2013-02-12 06:55:00,
2013-02-11 23:00:00,26.6,21.9,30.22,WSW,237,0.0,1.0,82,0.00,,---,0.00,VWS V14.01,2013-02-12 07:00:00,
2013-02-11 23:05:00,27.0,22.0,30.22,SW,235,1.0,2.0,81,0.00,,---,0.00,VWS V14.01,2013-02-12 07:05:00,
2013-02-11 23:10:00,27.1,21.8,30.22,West,262,1.0,3.0,80,0.00,,---,0.00,VWS V14.01,2013-02-12 07:10:00,
2013-02-11 23:15:00,27.3,21.7,30.22,WSW,243,0.0,3.0,79,0.00,,---,0.00,VWS V14.01,2013-02-12 07:15:00,
2013-02-11 23:20:00,27.3,21.1,30.22,WSW,243,0.0,3.0,77,0.00,,---,0.00,VWS V14.01,2013-02-12 07:20:00,
2013-02-11 23:25:00,26.5,19.7,30.22,West,266,0.0,3.0,75,0.00,,---,0.00,VWS V14.01,2013-02-12 07:25:00,
2013-02-11 23:30:00,25.0,18.5,30.22,West,270,1.0,1.0,76,0.00,,---,0.00,VWS V14.01,2013-02-12 07:30:00,
2013-02-11 23:35:00,24.0,18.5,30.23,West,281,0.0,2.0,79,0.00,,---,0.00,VWS V14.01,2013-02-12 07:35:00,
2013-02-11 23:40:00,23.4,18.4,30.23,WNW,295,2.0,3.0,81,0.00,,---,0.00,VWS V14.01,2013-02-12 07:40:00,
2013-02-11 23:45:00,23.1,18.4,30.23,West,280,2.0,3.0,82,0.00,,---,0.00,VWS V14.01,2013-02-12 07:45:00,
2013-02-11 23:50:00,22.9,18.5,30.23,West,277,1.0,3.0,83,0.00,,---,0.00,VWS V14.01,2013-02-12 07:50:00,
2013-02-11 23:55:00,22.8,18.7,30.23,West,280,1.0,3.0,84,0.00,,---,0.00,VWS V14.01,2013-02-12 07:55:00,